Terminal Aerodrome Forecast
Issued by NWS

Home | Current Version | Previous Version | Graphics & Text | Print | Product List | Glossary On
Versions: 1 2 3 4 5 6 7 8 9 10 11 12 13 14 15 16 17 18 19 20 21 22 23 24 25 26 27 28 29 30 31 32 33 34 35 36 37 38 39 40 41 42 43 44 45 46 47 48 49 50
932
FTUS43 KLOT 192102 AAA
TAFGYY
TAF AMD
KGYY 192102Z 1921/2018 05007KT 5SM BR SCT020 BKN025
     FM200000 06005KT P6SM SCT035
     FM200800 02010G16KT 6SM -SHRA BR FEW007 SCT010 OVC020
     FM201100 02008KT 6SM BR BKN007 OVC012=

USA.gov is the U.S. government's official web portal to all federal, state and local government web resources and services.